Regional Weather Roundup
Issued by NWS

Home | Current Version | Previous Version | Graphics & Text | Print | Product List | Glossary On
Versions: 1 2 3 4 5 6 7 8 9 10 11 12 13 14 15 16 17 18 19 20 21 22 23 24 25 26 27 28 29 30 31 32 33 34 35 36 37 38 39 40 41 42 43 44 45 46 47 48 49 50
000
ASUS43 KBIS 171402
RWRND

NORTH DAKOTA REGIONAL WEATHER ROUNDUP
NATIONAL WEATHER SERVICE BISMARCK ND
800 AM CST TUE JAN 17 2017

NOTE: "FAIR" INDICATES FEW OR NO CLOUDS BELOW 12,000 FEET WITH NO
SIGNIFICANT WEATHER AND/OR OBSTRUCTIONS TO VISIBILITY.


NDZ001>003-009>011-017-171500-
NORTHWEST NORTH DAKOTA

CITY           SKY/WX    TMP DP  RH WIND       PRES   REMARKS
WILLISTON      FAIR       9   5  84 S8        29.80F WCI  -3
MINOT          FAIR      17  10  74 SW10      29.80F WCI   5
$$

NDZ018>021-031>035-040>046-171500-
SOUTHWEST NORTH DAKOTA

CITY           SKY/WX    TMP DP  RH WIND       PRES   REMARKS
BISMARCK       FAIR       2  -2  83 SE3       29.94F
DICKINSON      FAIR      16   8  71 S16       29.81F WCI   1
GARRISON         N/A      5   1  83 S5        29.84F WCI  -4
HETTINGER ARPT CLOUDY     5   1  83 CALM      29.89F
$$

NDZ004>008-012>016-024-026-027-054-171500-
NORTHEAST NORTH DAKOTA

CITY           SKY/WX    TMP DP  RH WIND       PRES   REMARKS
GRAND FORKS    CLOUDY     2  -2  83 S7        29.93F WCI -11
GRND FRKS AFB  CLOUDY     8   4  84 SW7       29.92F WCI  -3
DEVILS LAKE    FAIR       9   6  88 S5        29.89F WCI   1
$$

NDZ022-023-025-028>030-036>039-047>053-171500-
SOUTHEAST NORTH DAKOTA

CITY           SKY/WX    TMP DP  RH WIND       PRES   REMARKS
FARGO          CLOUDY     5   2  87 S6        29.97F WCI  -6
JAMESTOWN      FAIR       5   2  87 CALM      29.93S
$$




USA.gov is the U.S. government's official web portal to all federal, state and local government web resources and services.